Location: *
(49.3500°N, 12.6000°E)
Time: 13:34:52
(UTC+00:00)

Falcon 9 debris - Pass Details

Date: 18 October 2019
Orbit: 430 x 438 km, 53.0° (Epoch: 18 November)

Event Time Altitude Azimuth Distance (km) Brightness Sun altitude
Rises 17:31:04 0° 291° (WNW) 2,407 ? -13.2°
Reaches altitude 10° 17:33:12 10° 295° (WNW) 1,540 ? -13.6°
Maximum altitude 17:36:38 63° 17° (NNE) 489 ? -14.1°
Enters shadow 17:38:10 29° 90° (E) 819 ? -14.4°
